Regional Weather Roundup
Issued by NWS

Home | Current Version | Previous Version | Graphics & Text | Print | Product List | Glossary On
Versions: 1 2 3 4 5 6 7 8 9 10 11 12 13 14 15 16 17 18 19 20 21 22 23 24 25 26 27 28 29 30 31 32 33 34 35 36 37 38 39 40 41 42 43 44 45 46 47 48 49 50
000
ASUS45 KPSR 301400
RWRAZ

ARIZONA HOURLY REGIONAL WEATHER ROUNDUP
NATIONAL WEATHER SERVICE PHOENIX AZ
700 AM MST SAT MAY 30 2015

NOTE: FAIR INDICATES FEW OR NO CLOUDS BELOW 12,000 FEET WITH NO
SIGNIFICANT WEATHER AND/OR OBSTRUCTIONS TO VISIBILITY.

AZZ001>003-036-301500-
NORTHWEST ARIZONA

CITY           SKY/WX    TMP DP  RH WIND       PRES   REMARKS
KINGMAN        SUNNY     72  18  13 CALM      30.06R
$$

AZZ004>008-015-016-018-301500-
NORTH CENTRAL ARIZONA

CITY           SKY/WX    TMP DP  RH WIND       PRES   REMARKS
GRAND CANYON   SUNNY     62  37  39 E3        30.28S
WILLIAMS       SUNNY     61  37  41 SE8       30.35S
PRESCOTT       SUNNY     63  25  23 CALM      30.18R
FLAGSTAFF      NOT AVBL
PAYSON         SUNNY     70  37  30 CALM      30.19S
PAGE           SUNNY     68  43  40 CALM      30.16S
$$

AZZ009>014-017-301500-
NORTHEAST ARIZONA

CITY           SKY/WX    TMP DP  RH WIND       PRES   REMARKS
WINSLOW        NOT AVBL
SAINT JOHNS    SUNNY     58  30  34 CALM      30.23S
WINDOW ROCK    SUNNY     50  33  52 CALM      30.31S
$$

AZZ023-301500-
GREATER PHOENIX AREA

CITY           SKY/WX    TMP DP  RH WIND       PRES   REMARKS
PHOENIX        MOSUNNY   78  38  23 E6        29.90R
GLENDALE       MOSUNNY   77  36  22 CALM      29.92
DEER VALLEY    SUNNY     74  36  25 E8        29.92R
SCOTTSDALE     SUNNY     75  42  30 CALM      29.94R
MESA-GATEWAY   MOSUNNY   70  41  35 E7        29.94R
CHANDLER       MOSUNNY   73  45  35 CALM      29.92R
$$

AZZ027-028-301500-
SOUTHWEST MARICOPA COUNTY AND PINAL COUNTY

CITY           SKY/WX    TMP DP  RH WIND       PRES   REMARKS
CASA GRANDE    SUNNY     73  39  29 CALM      29.93R
$$

AZZ503-504-507>509-301500-
SOUTHEAST ARIZONA

CITY           SKY/WX    TMP DP  RH WIND       PRES   REMARKS
TUCSON         SUNNY     72  37  28 S5        30.04R
NOGALES        SUNNY     65  37  35 CALM      30.10R
SAFFORD        SUNNY     73  23  15 SE3       30.04R
$$

AZZ020-021-025-026-031-301500-
SOUTHWEST ARIZONA

CITY           SKY/WX    TMP DP  RH WIND       PRES   REMARKS
YUMA           NOT AVBL
$$

CAZ031-033-041-043-047-048-061-301500-
SOUTHERN CALIFORNIA

CITY           SKY/WX    TMP DP  RH WIND       PRES   REMARKS
DOWNTOWN L.A.  CLOUDY    60  57  89 CALM      29.94R FOG
L.A. AIRPORT   CLOUDY    59  57  93 W5        29.94R FOG
SAN DIEGO      CLOUDY    63  56  78 W6        29.95R
BURBANK        CLOUDY    59  56  89 E5        29.94R FOG
ONTARIO        PTSUNNY   61  56  83 CALM      29.93R HAZE
RIVERSIDE      MOSUNNY   60  56  86 W3        29.93S FOG
PALM SPRINGS   SUNNY     79  43  27 N7        29.89R
EL CENTRO NAS  MOSUNNY   69  49  48 E6        29.87R
IMPERIAL       SUNNY     70  45  40 E6        29.84R
BLYTHE         SUNNY     76  36  23 N3        29.87R
$$

NVZ020-UTZ003-301500-
SOUTHERN NEVADA-UTAH

CITY           SKY/WX    TMP DP  RH WIND       PRES   REMARKS
LAS VEGAS      NOT AVBL
SALT LAKE CITY PTSUNNY   64  46  52 S12       30.10S
$$

NMZ009-TXZ055-301500-
NEW MEXICO-WEST TEXAS

CITY           SKY/WX    TMP DP  RH WIND       PRES   REMARKS
ALBUQUERQUE    MOSUNNY   63  47  55 E16       30.29R
EL PASO        MOSUNNY   71  52  50 NE15      30.16R
$$


........................KEY........................
SKY/WX - SKY CONDITION/WEATHER
TMP    - TEMPERATURE IN FAHRENHEIT
DP     - DEW POINT IN FAHRENHEIT
RH     - RELATIVE HUMIDITY IN PERCENT
WIND   - DIRECTION AND SPEED IN MILES PER HOUR (MPH)
VRB    - VARIABLE WIND DIRECTION
PRES   - MEAN SEA LEVEL PRESSURE IN INCHES OF MERCURY
         F - FALLING PRESSURE   R - RISING PRESSURE
         S - STEADY PRESSURE
VSB    - VISIBILITY IN MILES
HX     - HEAT INDEX IN FAHRENHEIT
WCI    - WIND CHILL INDEX IN FAHRENHEIT
TC     - TEMPERATURE IN CELSIUS WHICH IS ALSO KNOWN AS
         TEMPERATURE IN CENTIGRADE
AFB    - AIR FORCE BASE
         LUKE AFB IS LUKE AIR FORCE BASE
         DAVIS-MONTHAN IS DAVIS-MONTHAN AIR FORCE BASE
NAS    - NAVAL AIR STATION
         EL CENTRO NAS IS EL CENTRO NAVAL AIR STATION
N/A    - NOT AVAILABLE



USA.gov is the U.S. government's official web portal to all federal, state and local government web resources and services.